This is the latest recevied weather packets stored in our database for station/object KC5TIL. If no packets are shown the sender has not sent any weather packets the latest 10 day(s).
| Time | Temp. | Humidity | Pressure | Rain* | Wind** | Luminosity | Snow |
|---|---|---|---|---|---|---|---|
| 1778026128 | 27.22° C | 59% | 1006 hPa | 0 mm | - | 51 W/m² | - |
| 1778025826 | 27.78° C | 58% | 1005.9 hPa | 0 mm | - | 50 W/m² | - |
| 1778025522 | 27.78° C | 58% | 1005.9 hPa | 0 mm | - | 64 W/m² | - |
| 1778025220 | 27.78° C | 57% | 1005.9 hPa | 0 mm | - | 81 W/m² | - |
| 1778024917 | 27.78° C | 57% | 1005.6 hPa | 0 mm | - | 76 W/m² | - |
| 1778024615 | 28.33° C | 57% | 1005.6 hPa | 0 mm | - | 65 W/m² | - |
| 1778024311 | 28.33° C | 57% | 1005.5 hPa | 0 mm | - | 75 W/m² | - |
| 1778024009 | 28.89° C | 57% | 1005.3 hPa | 0 mm | - | 89 W/m² | - |
| 1778023706 | 29.44° C | 56% | 1005.4 hPa | 0 mm | - | 95 W/m² | - |
| 1778023404 | 30.56° C | 52% | 1005.2 hPa | 0 mm | - | 103 W/m² | - |
| 1778023100 | 30.56° C | 50% | 1005.3 hPa | 0 mm | - | 84 W/m² | - |
| 1778022799 | 30.56° C | 49% | 1005 hPa | 0 mm | - | 85 W/m² | - |
| 1778022497 | 31.11° C | 50% | 1005 hPa | 0 mm | - | 158 W/m² | - |
| 1778022193 | 31.11° C | 49% | 1004.8 hPa | 0 mm | - | 195 W/m² | - |
| 1778021890 | 31.11° C | 48% | 1004.8 hPa | 0 mm | - | 147 W/m² | - |
| 1778021587 | 31.11° C | 47% | 1004.7 hPa | 0 mm | - | 145 W/m² | - |
| 1778021282 | 31.67° C | 47% | 1004.6 hPa | 0 mm | - | 199 W/m² | - |
| 1778020980 | 33.33° C | 46% | 1004.3 hPa | 0 mm | - | 158 W/m² | - |
| 1778020677 | 33.89° C | 48% | 1004.4 hPa | 0 mm | - | 179 W/m² | - |
| 1778020374 | 34.44° C | 45% | 1004.4 hPa | 0 mm | - | 178 W/m² | - |
| 1778020070 | 34.44° C | 43% | 1004.5 hPa | 0 mm | - | 296 W/m² | - |
| 1778019766 | 35° C | 43% | 1004.3 hPa | 0 mm | - | 354 W/m² | - |
| 1778019463 | 35° C | 44% | 1004.3 hPa | 0 mm | - | 465 W/m² | - |
| 1778019160 | 35° C | 44% | 1004.3 hPa | 0 mm | - | 505 W/m² | - |
| 1778018856 | 34.44° C | 44% | 1004.1 hPa | 0 mm | - | 485 W/m² | - |
* Rain latest hour (hover to see other rain measurements)
** Current wind speed in m/s (hover to see current wind gust speed)